Weather History for KLGD - January, 2014

Change the Weather History Date:

Tuesday, January 14, 2014

  Actual Average Record
Temperature  
Mean Temperature 37 °F -  
Max Temperature 46 °F 36 °F 50 °F (1967)
Min Temperature 28 °F 26 °F 10 °F (1997)
Degree Days  
Heating Degree Days 28    
Moisture  
Dew Point 27 °F    
Average Humidity 66    
Maximum Humidity 86    
Minimum Humidity 50    
Precipitation  
Precipitation 0.00 in - - ()
Sea Level Pressure  
Sea Level Pressure 30.58 in    
Wind  
Wind Speed 5 mph (SSW)    
Max Wind Speed 15 mph    
Max Gust Speed 18 mph    
Visibility 10 miles    
Events      
Averages and records for this station are not official NWS values.
T = Trace of Precipitation, MM = Missing Value Source: NWS Daily Summary

Daily Weather History Graph

Daily Weather History Graph

Search for Another Location

Airport or City:

Trip Planner

Search our weather history database for the weather conditions in past years. The results will help you decide how hot, cold, wet, or windy it might be!

Date:

Astronomy

Jan. 14, 2014 Rise Set
Actual Time 7:28 AM PST 4:34 PM PST
Civil Twilight 6:55 AM PST 5:07 PM PST
Nautical Twilight 6:18 AM PST 5:44 PM PST
Astronomical Twilight 5:43 AM PST 6:19 PM PST
Moon 3:45 PM PST (1/14) 6:04 AM PST (1/14)
Length of Visible Light 10h 12m
Length of Day
9h 06m
Waxing Gibbous, 98% of the Moon is Illuminated
Jan 14
Waxing Gibbous
Jan 15
Full
Jan 23
Last Quarter
Jan 30
New
Feb 6
First Quarter

Hourly Weather History & Observations

Time (PST) Temp. Windchill Dew Point Humidity Pressure Visibility Wind Dir Wind Speed Gust Speed Precip Events Conditions
12:15 AM 37.4 °F 33.8 °F 28.4 °F 70% 30.56 in 10.0 mi West 4.6 mph - N/A   Scattered Clouds
12:35 AM 37.4 °F 32.8 °F 28.4 °F 70% 30.57 in 10.0 mi SW 5.8 mph - N/A   Mostly Cloudy
12:55 AM 37.4 °F 33.8 °F 28.4 °F 70% 30.57 in 10.0 mi WNW 4.6 mph - N/A   Overcast
1:15 AM 39.2 °F 32.5 °F 28.4 °F 65% 30.58 in 10.0 mi NW 10.4 mph - N/A   Overcast
1:35 AM 42.8 °F 36.6 °F 28.4 °F 57% 30.58 in 10.0 mi WNW 11.5 mph - N/A   Overcast
1:55 AM 41.0 °F 37.1 °F 28.4 °F 61% 30.58 in 10.0 mi West 5.8 mph - N/A   Mostly Cloudy
2:15 AM 37.4 °F 32.8 °F 26.6 °F 65% 30.59 in 10.0 mi SW 5.8 mph - N/A   Mostly Cloudy
2:35 AM 37.4 °F 32.8 °F 26.6 °F 65% 30.59 in 10.0 mi SSW 5.8 mph - N/A   Mostly Cloudy
2:55 AM 37.4 °F 31.4 °F 26.6 °F 65% 30.58 in 10.0 mi SSW 8.1 mph - N/A   Clear
3:15 AM 35.6 °F 29.2 °F 26.6 °F 70% 30.58 in 10.0 mi South 8.1 mph - N/A   Clear
3:35 AM 35.6 °F 31.7 °F 26.6 °F 70% 30.58 in 10.0 mi SSE 4.6 mph - N/A   Clear
3:55 AM 33.8 °F - 26.6 °F 75% 30.59 in 10.0 mi Calm Calm - N/A   Clear
4:15 AM 32.0 °F 27.5 °F 24.8 °F 75% 30.59 in 10.0 mi WSW 4.6 mph - N/A   Clear
4:35 AM 33.8 °F 29.6 °F 24.8 °F 70% 30.59 in 10.0 mi West 4.6 mph - N/A   Clear
4:55 AM 35.6 °F 32.8 °F 26.6 °F 70% 30.59 in 10.0 mi SW 3.5 mph - N/A   Clear
5:15 AM 33.8 °F 30.8 °F 24.8 °F 70% 30.60 in 10.0 mi SW 3.5 mph - N/A   Clear
5:35 AM 33.8 °F 30.8 °F 24.8 °F 70% 30.61 in 10.0 mi SSW 3.5 mph - N/A   Clear
5:55 AM 33.8 °F 30.8 °F 24.8 °F 70% 30.60 in 10.0 mi SW 3.5 mph - N/A   Clear
6:15 AM 32.0 °F - 24.8 °F 75% 30.61 in 10.0 mi Calm Calm - N/A   Clear
6:35 AM 33.8 °F 29.6 °F 26.6 °F 75% 30.60 in 10.0 mi SSE 4.6 mph - N/A   Clear
6:55 AM 32.0 °F - 24.8 °F 75% 30.60 in 10.0 mi Calm Calm - N/A   Clear
7:15 AM 30.2 °F - 24.8 °F 80% 30.60 in 10.0 mi Calm Calm - N/A   Clear
7:35 AM 28.4 °F - 21.2 °F 74% 30.60 in 10.0 mi Calm Calm - N/A   Clear
7:55 AM 28.4 °F - 24.8 °F 86% 30.60 in 10.0 mi Calm Calm - N/A   Clear
8:15 AM 30.2 °F - 24.8 °F 80% 30.61 in 10.0 mi Calm Calm - N/A   Clear
8:35 AM 33.8 °F - 26.6 °F 75% 30.63 in 10.0 mi Calm Calm - N/A   Clear
8:55 AM 35.6 °F - 28.4 °F 75% 30.64 in 10.0 mi Calm Calm - N/A   Clear
9:15 AM 37.4 °F - 28.4 °F 70% 30.65 in 10.0 mi Calm Calm - N/A   Clear
9:35 AM 37.4 °F - 28.4 °F 70% 30.65 in 10.0 mi Calm Calm - N/A   Clear
9:55 AM 39.2 °F - 28.4 °F 65% 30.65 in 10.0 mi Calm Calm - N/A   Clear
10:15 AM 39.2 °F - 28.4 °F 65% 30.65 in 10.0 mi Calm Calm - N/A   Clear
10:35 AM 39.2 °F - 28.4 °F 65% 30.65 in 10.0 mi Calm Calm - N/A   Clear
10:55 AM 42.8 °F - 30.2 °F 61% 30.64 in 10.0 mi Calm Calm - N/A   Clear
11:15 AM 44.6 °F - 30.2 °F 57% 30.62 in 10.0 mi Calm Calm - N/A   Clear
11:35 AM 42.8 °F - 30.2 °F 61% 30.61 in 10.0 mi Calm Calm - N/A   Clear
11:55 AM 44.6 °F 42.2 °F 30.2 °F 57% 30.60 in 10.0 mi ENE 4.6 mph - N/A   Clear
12:15 PM 42.8 °F 41.1 °F 30.2 °F 61% 30.60 in 10.0 mi NNE 3.5 mph - N/A   Clear
12:35 PM 42.8 °F 39.3 °F 30.2 °F 61% 30.60 in 10.0 mi North 5.8 mph - N/A   Clear
12:55 PM 44.6 °F 43.1 °F 30.2 °F 57% 30.59 in 10.0 mi NNW 3.5 mph - N/A   Clear
1:15 PM 44.6 °F - 30.2 °F 57% 30.58 in 10.0 mi Calm Calm - N/A   Clear
1:35 PM 46.4 °F 44.3 °F 30.2 °F 53% 30.58 in 10.0 mi NE 4.6 mph - N/A   Clear
1:55 PM 44.6 °F - 30.2 °F 57% 30.58 in 10.0 mi Calm Calm - N/A   Clear
2:15 PM 46.4 °F - 30.2 °F 53% 30.58 in 10.0 mi Calm Calm - N/A   Clear
2:35 PM 46.4 °F - 30.2 °F 53% 30.58 in 10.0 mi Calm Calm - N/A   Clear
2:55 PM 46.4 °F 41.1 °F 28.4 °F 50% 30.58 in 10.0 mi SSW 11.5 mph - N/A   Clear
3:15 PM 44.6 °F 39.7 °F 28.4 °F 53% 30.58 in 10.0 mi SSW 9.2 mph - N/A   Clear
3:35 PM 44.6 °F 39.2 °F 28.4 °F 53% 30.57 in 10.0 mi SSW 10.4 mph - N/A   Clear
3:55 PM 42.8 °F 35.4 °F 28.4 °F 57% 30.57 in 10.0 mi SSW 15.0 mph - N/A   Clear
4:15 PM 41.0 °F 33.1 °F 28.4 °F 61% 30.58 in 10.0 mi SSW 15.0 mph - N/A   Clear
4:35 PM 41.0 °F 33.1 °F 26.6 °F 57% 30.59 in 10.0 mi SSW 15.0 mph 18.4 mph N/A   Clear
4:55 PM 39.2 °F 31.6 °F 26.6 °F 61% 30.58 in 10.0 mi South 12.7 mph - N/A   Clear
5:15 PM 39.2 °F 31.2 °F 26.6 °F 61% 30.57 in 10.0 mi SSW 13.8 mph - N/A   Clear
5:35 PM 39.2 °F 31.2 °F 26.6 °F 61% 30.57 in 10.0 mi South 13.8 mph - N/A   Clear
5:55 PM 39.2 °F 32.5 °F 26.6 °F 61% 30.56 in 10.0 mi South 10.4 mph - N/A   Clear
6:15 PM 39.2 °F 33.0 °F 26.6 °F 61% 30.55 in 10.0 mi SW 9.2 mph - N/A   Clear
6:35 PM 37.4 °F 32.1 °F 26.6 °F 65% 30.55 in 10.0 mi SSE 6.9 mph - N/A   Clear
6:55 PM 37.4 °F 32.8 °F 26.6 °F 65% 30.55 in 10.0 mi South 5.8 mph - N/A   Clear
7:15 PM 37.4 °F 34.9 °F 26.6 °F 65% 30.55 in 10.0 mi East 3.5 mph - N/A   Clear
7:35 PM 37.4 °F 31.4 °F 26.6 °F 65% 30.54 in 10.0 mi South 8.1 mph - N/A   Clear
7:55 PM 37.4 °F 30.3 °F 26.6 °F 65% 30.54 in 10.0 mi South 10.4 mph - N/A   Clear
8:15 PM 33.8 °F - 24.8 °F 70% 30.54 in 10.0 mi Calm Calm - N/A   Clear
8:35 PM 37.4 °F 30.8 °F 28.4 °F 70% 30.54 in 10.0 mi South 9.2 mph - N/A   Clear
8:55 PM 37.4 °F 29.3 °F 26.6 °F 65% 30.54 in 10.0 mi South 12.7 mph - N/A   Clear
9:15 PM 37.4 °F 34.9 °F 26.6 °F 65% 30.55 in 10.0 mi SW 3.5 mph - N/A   Clear
9:35 PM 37.4 °F 29.8 °F 26.6 °F 65% 30.55 in 10.0 mi SW 11.5 mph - N/A   Clear
9:55 PM 37.4 °F 30.3 °F 26.6 °F 65% 30.55 in 10.0 mi WSW 10.4 mph 17.3 mph N/A   Clear
10:15 PM 37.4 °F 32.8 °F 26.6 °F 65% 30.55 in 10.0 mi SSW 5.8 mph - N/A   Clear
10:35 PM 35.6 °F - 26.6 °F 70% 30.55 in 10.0 mi Calm Calm - N/A   Clear
10:55 PM 30.2 °F 23.4 °F 21.2 °F 69% 30.55 in 10.0 mi NE 6.9 mph - N/A   Clear
11:15 PM 32.0 °F - 24.8 °F 75% 30.54 in 10.0 mi Calm Calm - N/A   Clear
11:35 PM 32.0 °F 28.7 °F 24.8 °F 75% 30.53 in 10.0 mi South 3.5 mph - N/A   Clear
11:55 PM 33.8 °F 25.8 °F 24.8 °F 70% 30.53 in 10.0 mi South 10.4 mph - N/A   Clear